Météo par heure à Aliso Viejo

Ce jour, 30 Octobre, Vendredi

Heure Température Précipitation Vent Pression Humidité
00:00 +16°C° 0 mm 0 m/s 748 mmHg 57%
01:00 +16°C° 0 mm 0 m/s 748 mmHg 56%
02:00 +16°C° 0 mm 0 m/s 747 mmHg 56%
03:00 +16°C° 0 mm 0 m/s 747 mmHg 56%
04:00 +18°C° 0 mm 1 m/s 747 mmHg 56%
05:00 +16°C° 0 mm 0 m/s 748 mmHg 51%
06:00 +17°C° 0 mm 0 m/s 748 mmHg 46%
07:00 +18°C° 0 mm 0 m/s 748 mmHg 41%
08:00 +21°C° 0 mm 0 m/s 748 mmHg 35%
09:00 +25°C° 0 mm 1 m/s 748 mmHg 29%
10:00 +28°C° 0 mm 1 m/s 749 mmHg 23%
11:00 +28°C° 0 mm 1 m/s 748 mmHg 22%
12:00 +29°C° 0 mm 2 m/s 747 mmHg 22%
13:00 +29°C° 0 mm 2 m/s 746 mmHg 21%
14:00 +29°C° 0 mm 2 m/s 746 mmHg 23%
15:00 +28°C° 0 mm 2 m/s 746 mmHg 26%
16:00 +27°C° 0 mm 2 m/s 746 mmHg 28%
17:00 +25°C° 0 mm 2 m/s 746 mmHg 36%
18:00 +22°C° 0 mm 1 m/s 747 mmHg 45%
19:00 +20°C° 0 mm 1 m/s 747 mmHg 53%
20:00 +20°C° 0 mm 1 m/s 747 mmHg 53%
21:00 +18°C° 0 mm 0 m/s 748 mmHg 52%
22:00 +17°C° 0 mm 0 m/s 748 mmHg 51%
23:00 +17°C° 0 mm 0 m/s 748 mmHg 51%

Demain, 31 Octobre, Samedi

Heure Température Précipitation Vent Pression Humidité
00:00 +17°C° 0 mm 0 m/s 747 mmHg 52%
01:00 +17°C° 0 mm 0 m/s 747 mmHg 52%
02:00 +17°C° 0 mm 0 m/s 747 mmHg 51%
03:00 +18°C° 0 mm 1 m/s 747 mmHg 51%
04:00 +18°C° 0 mm 1 m/s 747 mmHg 51%
05:00 +19°C° 0 mm 1 m/s 748 mmHg 45%
06:00 +20°C° 0 mm 1 m/s 748 mmHg 40%
07:00 +21°C° 0 mm 1 m/s 748 mmHg 34%
08:00 +24°C° 0 mm 1 m/s 749 mmHg 29%
09:00 +27°C° 0 mm 1 m/s 749 mmHg 23%
10:00 +29°C° 0 mm 1 m/s 749 mmHg 17%
11:00 +30°C° 0 mm 1 m/s 749 mmHg 17%
12:00 +30°C° 0 mm 2 m/s 748 mmHg 17%
13:00 +31°C° 0 mm 2 m/s 748 mmHg 17%
14:00 +30°C° 0 mm 2 m/s 748 mmHg 19%
15:00 +29°C° 0 mm 2 m/s 748 mmHg 20%
16:00 +29°C° 0 mm 2 m/s 748 mmHg 22%
17:00 +27°C° 0 mm 2 m/s 748 mmHg 26%
18:00 +25°C° 0 mm 1 m/s 748 mmHg 30%
19:00 +23°C° 0 mm 1 m/s 749 mmHg 34%
20:00 +22°C° 0 mm 1 m/s 749 mmHg 37%
21:00 +22°C° 0 mm 1 m/s 749 mmHg 40%
22:00 +19°C° 0 mm 0 m/s 749 mmHg 43%
23:00 +19°C° 0 mm 0 m/s 749 mmHg 40%

Après-demain, 1 Novembre, Dimanche

Heure Température Précipitation Vent Pression Humidité
00:00 +19°C° 0 mm 0 m/s 749 mmHg 37%
01:00 +19°C° 0 mm 0 m/s 749 mmHg 34%
02:00 +19°C° 0 mm 0 m/s 749 mmHg 32%
03:00 +19°C° 0 mm 0 m/s 749 mmHg 31%
04:00 +22°C° 0 mm 1 m/s 749 mmHg 29%
05:00 +22°C° 0 mm 1 m/s 749 mmHg 27%
06:00 +23°C° 0 mm 1 m/s 750 mmHg 25%
07:00 +23°C° 0 mm 1 m/s 750 mmHg 23%
08:00 +26°C° 0 mm 1 m/s 750 mmHg 20%
09:00 +28°C° 0 mm 1 m/s 750 mmHg 17%
10:00 +31°C° 0 mm 1 m/s 751 mmHg 14%
11:00 +31°C° 0 mm 1 m/s 750 mmHg 13%
12:00 +32°C° 0 mm 2 m/s 750 mmHg 13%
13:00 +33°C° 0 mm 3 m/s 749 mmHg 12%
14:00 +33°C° 0 mm 3 m/s 749 mmHg 13%
15:00 +31°C° 0 mm 3 m/s 749 mmHg 14%
16:00 +31°C° 0 mm 3 m/s 749 mmHg 15%
17:00 +28°C° 0 mm 2 m/s 749 mmHg 21%
18:00 +25°C° 0 mm 1 m/s 749 mmHg 28%
19:00 +23°C° 0 mm 1 m/s 749 mmHg 35%
20:00 +23°C° 0 mm 1 m/s 750 mmHg 36%
21:00 +22°C° 0 mm 1 m/s 750 mmHg 37%
22:00 +22°C° 0 mm 1 m/s 750 mmHg 38%
23:00 +22°C° 0 mm 1 m/s 749 mmHg 38%

2 Novembre, Lundi

Heure Température Précipitation Vent Pression Humidité
00:00 +21°C° 0 mm 1 m/s 749 mmHg 38%
01:00 +21°C° 0 mm 1 m/s 749 mmHg 38%
02:00 +21°C° 0 mm 1 m/s 749 mmHg 37%
03:00 +21°C° 0 mm 1 m/s 749 mmHg 35%
04:00 +21°C° 0 mm 1 m/s 749 mmHg 34%
05:00 +22°C° 0 mm 1 m/s 749 mmHg 30%
06:00 +23°C° 0 mm 1 m/s 749 mmHg 26%
07:00 +24°C° 0 mm 1 m/s 749 mmHg 22%
08:00 +26°C° 0 mm 1 m/s 749 mmHg 19%
09:00 +27°C° 0 mm 0 m/s 749 mmHg 16%
10:00 +29°C° 0 mm 0 m/s 749 mmHg 13%
11:00 +32°C° 0 mm 1 m/s 749 mmHg 13%
12:00 +32°C° 0 mm 2 m/s 748 mmHg 12%
13:00 +34°C° 0 mm 2 m/s 747 mmHg 12%
14:00 +33°C° 0 mm 3 m/s 747 mmHg 13%
15:00 +31°C° 0 mm 3 m/s 747 mmHg 14%
16:00 +30°C° 0 mm 3 m/s 747 mmHg 15%
17:00 +28°C° 0 mm 2 m/s 747 mmHg 20%
18:00 +25°C° 0 mm 2 m/s 747 mmHg 25%
19:00 +22°C° 0 mm 1 m/s 747 mmHg 30%
20:00 +22°C° 0 mm 1 m/s 747 mmHg 33%
21:00 +22°C° 0 mm 1 m/s 747 mmHg 35%
22:00 +21°C° 0 mm 1 m/s 747 mmHg 37%
23:00 +21°C° 0 mm 1 m/s 747 mmHg 40%

3 Novembre, Mardi

Heure Température Précipitation Vent Pression Humidité
00:00 +19°C° 0 mm 0 m/s 747 mmHg 42%
01:00 +18°C° 0 mm 0 m/s 746 mmHg 45%
02:00 +18°C° 0 mm 0 m/s 746 mmHg 45%
03:00 +18°C° 0 mm 0 m/s 746 mmHg 45%
04:00 +18°C° 0 mm 0 m/s 746 mmHg 45%
05:00 +18°C° 0 mm 0 m/s 746 mmHg 41%
06:00 +19°C° 0 mm 0 m/s 747 mmHg 36%
07:00 +20°C° 0 mm 0 m/s 747 mmHg 32%
08:00 +24°C° 0 mm 1 m/s 747 mmHg 28%
09:00 +26°C° 0 mm 1 m/s 747 mmHg 24%
10:00 +29°C° 0 mm 1 m/s 747 mmHg 19%
11:00 +29°C° 0 mm 2 m/s 747 mmHg 20%
12:00 +29°C° 0 mm 2 m/s 746 mmHg 20%
13:00 +30°C° 0 mm 2 m/s 746 mmHg 20%
14:00 +29°C° 0 mm 2 m/s 746 mmHg 23%
15:00 +28°C° 0 mm 2 m/s 746 mmHg 26%
16:00 +26°C° 0 mm 1 m/s 746 mmHg 29%
17:00 +25°C° 0 mm 1 m/s 746 mmHg 34%
18:00 +23°C° 0 mm 1 m/s 746 mmHg 40%
19:00 +21°C° 0 mm 1 m/s 747 mmHg 45%
20:00 +21°C° 0 mm 1 m/s 747 mmHg 46%
21:00 +20°C° 0 mm 1 m/s 747 mmHg 47%
22:00 +20°C° 0 mm 1 m/s 747 mmHg 49%
23:00 +20°C° 0 mm 1 m/s 747 mmHg 50%

4 Novembre, Mercredi

Heure Température Précipitation Vent Pression Humidité
00:00 +18°C° 0 mm 0 m/s 747 mmHg 51%
01:00 +17°C° 0 mm 0 m/s 747 mmHg 52%
02:00 +17°C° 0 mm 0 m/s 747 mmHg 53%
03:00 +17°C° 0 mm 0 m/s 747 mmHg 54%
04:00 +16°C° 0 mm 0 m/s 747 mmHg 55%
05:00 +17°C° 0 mm 0 m/s 748 mmHg 49%
06:00 +20°C° 0 mm 1 m/s 748 mmHg 43%
07:00 +21°C° 0 mm 1 m/s 749 mmHg 37%
08:00 +24°C° 0 mm 1 m/s 749 mmHg 31%
09:00 +27°C° 0 mm 1 m/s 749 mmHg 25%
10:00 +30°C° 0 mm 1 m/s 749 mmHg 20%
11:00 +31°C° 0 mm 1 m/s 749 mmHg 19%
12:00 +31°C° 0 mm 2 m/s 748 mmHg 18%
13:00 +32°C° 0 mm 2 m/s 748 mmHg 18%
14:00 +31°C° 0 mm 2 m/s 748 mmHg 20%
15:00 +30°C° 0 mm 3 m/s 748 mmHg 22%
16:00 +29°C° 0 mm 3 m/s 748 mmHg 24%
17:00 +27°C° 0 mm 2 m/s 748 mmHg 31%
18:00 +25°C° 0 mm 2 m/s 749 mmHg 39%
19:00 +22°C° 0 mm 1 m/s 749 mmHg 46%
20:00 +22°C° 0 mm 1 m/s 749 mmHg 45%
21:00 +22°C° 0 mm 1 m/s 750 mmHg 44%
22:00 +22°C° 0 mm 1 m/s 750 mmHg 43%
23:00 +22°C° 0 mm 1 m/s 750 mmHg 42%
Voir plus

Nous avons besoin de votre consentement

Meteoprog et ses fournisseurs de services peuvent stocker et accéder à des données personnelles telles que des cookies, des identifiants d'appareils ou d'autres technologies similaires sur votre appareil et traiter ces données pour personnaliser le contenu et les publicités, ainsi que pour fournir des fonctionnalités de médias sociaux et analyser le trafic.

  • Stocker et/ou accéder à des informations sur votre appareil

    Des cookies, des identifiants d'appareils ou d'autres informations peuvent être stockés ou accessibles sur votre appareil aux fins indiquées ci-dessus.

  • Annonces et contenus personnalisés, mesure des annonces et des contenus, connaissance de l'audience et développement de produits

    Les annonces et le contenu peuvent être personnalisés en fonction d'un profil. D'autres données peuvent être ajoutées pour mieux personnaliser les annonces et le contenu. Les performances des publicités et du contenu peuvent être mesurées. Il est possible d'obtenir des informations sur le public qui a vu les publicités et le contenu. Ces données peuvent être utilisées pour développer ou améliorer l'expérience de l'utilisateur, les systèmes et les logiciels.

En cliquant sur "J'accepte", vous autorisez l'utilisation de cookies, des identifiants d'appareils, des balises web ou d'autres technologies similaires. Vos paramètres peuvent être modifiés dans le navigateur de votre appareil.

Dans certains cas, des intérêts légitimes peuvent être invoqués plutôt qu'un consentement. Vous pouvez en savoir plus à ce sujet dans notre Politique de confidentialité et de cookies.